SL-16 DEB

Satellite information

Favourite Embed

Satellite Type and Status

DEBRISIN ORBIT

Key statistics

Satellite SL-16 DEB at a glance.

Uptime

11823

Days in orbit

Revolutions

≈ 14.3

Per day

Orbit

LEO

Low Earth Orbit

Inclination

71.0

Latest

Satellite identification and parameters

Extended collection of information and parameters for SL-16 DEB.

Object identification

Identified? True

Debris? True

Object name: SL-16 DEB

International designator: 1992-093JT

Object number (NORAD): 39302

Object ID (CCSDS): 39302

Country: COMMONWEALTH OF INDEPENDENT STATES (CIS)

Current information (Y/N): Y

RCS size: SMALL

Orbital parameters

Period: 100.872 minutes

Inclination: 70.9848 deg

SMA: 7178.078 km

Apoapsis: 889.475 km

Periapsis: 710.412 km

RAAN: 147.8115 deg

Eccentricy: 0.0124729

Argument of periapsis: 224.4485 deg

Mean anomaly: 314.1729 deg

Mean motion: 14.27547173 rev/day

Mean motion (dot): 0.00003962 rev/day2

B* drag term: 0.0015004 1/REarth

Two-line elements (TLE)

Creation date: May 6, 2025, 3:54 a.m.

Reference frame: TEME

Reference center: EARTH

Epoch: May 5, 2025, 7:23 p.m. UTC

TLE line 0: 0 SL-16 DEB

TLE line 1: 1 39302U 92093JT 25125.80798977 .00003962 00000-0 15004-2 0 9992

TLE line 2: 2 39302 70.9848 147.8115 0124729 224.4485 314.1729 14.27547173600044

Live tracking on map

Real-time ground track for satellite SL-16 DEB.

In-orbit conjunctions

A list of the most updated potential collisions computed for object SL-16 DEB.

Target Orbit TCA Probability of collision Miss distance Type
DMSP 5D-2 F13 DEB SSO 2024-11-15 09:55:15 0.0001543456 301.0 (m) DEBRIS
CZ-6A DEB LEO 2024-11-13 10:35:23 0.0001310253 331.0 (m) DEBRIS

Associated space launch

Second generation ELING satellite

SL-16 DEB was lifted into orbit during the mission ‘Zenit-2 | Tselina-2 12’, on board a Zenit-2 space rocket.

The launch took place on Dec. 25, 1992, 5:56 a.m. from 45/1.

For more information about the launch, click the button.

Launch to space Zenit-2 | Tselina-2 12
Zenit-2 | Tselina-2 12

Agency: N/A

Status: Launch Successful

Launch date: Dec. 25, 1992, 5:56 a.m. UTC

Rocket: Zenit-2

Launch pad: 45/1

Location: Baikonur Cosmodrome, Republic of Kazakhstan

...

Latest news about this satellite

There are no fresh news available about this satellite. Check back as we update our databases every day.


Newsletter sign-up

Weekly statistics, charts and insights to help you stay on top of the space industry.